EW5026 Weather Reports


time (UTC)temp
C
wind
direction
speed
KPH
gust
KPH
rain 1hr
cm
rain 24hr
cm
rain mn
cm
humidity
%
barometer
mb
20260906113014 18 19 0.0 0.0 0.00 0.00 0.00 93 1015.4
20260906112512 18 19 0.0 0.0 0.00 0.00 0.00 93 1015.2
20260906112012 18 19 0.0 1.6 0.00 0.00 0.00 93 1015.1
20260906111511 19 19 0.0 3.2 0.00 0.00 0.00 93 1015.1
20260906111010 19 19 0.0 3.2 0.00 0.00 0.00 93 1015.0
20260906110509 19 19 1.6 3.2 0.00 0.00 0.00 93 1015.1
20260906110009 19 19 1.6 4.8 0.00 0.00 0.00 93 1015.0
20260906105508 19 19 1.6 4.8 0.00 0.00 0.00 93 1014.8
20260906105006 19 19 1.6 4.8 0.00 0.00 0.00 93 1014.8
20260906104507 19 19 3.2 4.8 0.00 0.00 0.00 92 1014.8
20260906104009 19 19 0.0 0.0 0.00 0.00 0.00 92 1014.7
20260906103505 20 39 0.0 0.0 0.00 0.00 0.00 92 1014.7
20260906103009 20 39 0.0 0.0 0.00 0.00 0.00 92 1014.6
20260906102504 20 39 0.0 4.8 0.00 0.00 0.00 92 1014.5
20260906102003 20 39 0.0 4.8 0.00 0.00 0.00 92 1014.5
20260906101504 20 39 1.6 4.8 0.00 0.00 0.00 92 1014.6
20260906101001 20 39 1.6 4.8 0.00 0.00 0.00 92 1014.6
20260906100503 20 39 3.2 6.4 0.00 0.00 0.00 92 1014.6
20260906100100 20 38 1.6 6.4 0.00 0.00 0.00 92 1014.5
20260906095601 20 18 3.2 6.4 0.00 0.00 0.00 92 1014.5
20260906095102 20 24 0.0 4.8 0.00 0.00 0.00 92 1014.4
20260906094609 20 36 0.0 0.0 0.00 0.00 0.00 92 1014.3
20260906094059 20 25 0.0 0.0 0.00 0.00 0.00 92 1014.2
20260906093559 20 26 0.0 0.0 0.00 0.00 0.00 92 1014.2
20260906093112 20 38 0.0 0.0 0.00 0.00 0.00 92 1014.3
20260906092602 20 22 0.0 0.0 0.00 0.00 0.00 92 1014.3
20260906092058 20 38 0.0 0.0 0.00 0.00 0.00 92 1014.3
20260906091559 20 38 0.0 0.0 0.00 0.00 0.00 92 1014.3
20260906091101 20 38 0.0 3.2 0.00 0.00 0.00 92 1014.2
20260906090557 21 38 0.0 3.2 0.00 0.00 0.00 92 1014.2
20260906090134 21 38 0.0 3.2 0.00 0.00 0.00 91 1014.2
20260906085559 21 38 0.0 3.2 0.00 0.00 0.00 91 1014.2
20260906085055 21 38 0.0 1.6 0.00 0.00 0.00 91 1014.1
20260906084600 21 38 0.0 0.0 0.00 0.00 0.00 91 1014.2
20260906084052 21 38 0.0 0.0 0.00 0.00 0.00 90 1014.2
20260906083552 21 38 0.0 4.8 0.00 0.00 0.00 90 1014.2
20260906083051 21 38 0.0 4.8 0.00 0.00 0.00 90 1014.1
20260906082550 22 23 0.0 4.8 0.00 0.00 0.00 90 1014.2
20260906082049 22 53 0.0 6.4 0.00 0.00 0.00 90 1014.2
20260906081549 22 44 1.6 6.4 0.00 0.00 0.00 90 1014.3
20260906081049 22 36 0.0 6.4 0.00 0.00 0.00 90 1014.3
20260906080549 22 26 0.0 6.4 0.00 0.00 0.00 90 1014.3
20260906080100 22 19 1.6 6.4 0.00 0.00 0.00 89 1014.3
20260906075548 22 42 0.0 6.4 0.00 0.00 0.00 89 1014.3
20260906075048 22 35 1.6 8.0 0.00 0.00 0.00 89 1014.3
20260906074553 22 35 1.6 8.0 0.00 0.00 0.00 89 1014.3
20260906074048 22 49 1.6 6.4 0.00 0.00 0.00 89 1014.3
20260906073551 22 32 3.2 6.4 0.00 0.00 0.00 89 1014.4
20260906073047 22 32 0.0 6.4 0.00 0.00 0.00 89 1014.4
20260906072547 22 30 1.6 6.4 0.00 0.00 0.00 89 1014.4
20260906072046 22 19 1.6 8.0 0.00 0.00 0.00 89 1014.4
20260906071546 22 34 1.6 8.0 0.00 0.00 0.00 89 1014.4
20260906071047 22 14 0.0 6.4 0.00 0.00 0.00 89 1014.4
20260906070547 22 36 1.6 6.4 0.00 0.00 0.00 89 1014.4
20260906070046 22 32 3.2 6.4 0.00 0.00 0.00 89 1014.4
20260906065546 22 44 3.2 6.4 0.00 0.00 0.00 89 1014.4
20260906065047 22 38 1.6 8.0 0.00 0.00 0.00 89 1014.4
20260906064548 22 16 1.6 8.0 0.00 0.00 0.00 89 1014.4
20260906064046 22 40 1.6 8.0 0.00 0.00 0.00 89 1014.4
20260906063545 22 29 3.2 8.0 0.00 0.00 0.00 89 1014.5
20260906063048 22 20 0.0 8.0 0.00 0.00 0.00 89 1014.5
20260906062544 22 30 3.2 8.0 0.00 0.00 0.00 90 1014.5
20260906062044 22 37 3.2 8.0 0.00 0.00 0.00 90 1014.4
20260906061549 22 12 3.2 8.0 0.00 0.00 0.00 90 1014.5
20260906061042 22 11 1.6 8.0 0.00 0.00 0.00 91 1014.4
20260906060545 22 34 1.6 6.4 0.00 0.00 0.00 91 1014.3
20260906060041 22 360 1.6 6.4 0.00 0.00 0.00 91 1014.3
20260906055541 22 10 1.6 6.4 0.00 0.00 0.00 91 1014.2
20260906055041 22 9 1.6 6.4 0.00 0.00 0.00 91 1014.2
20260906054544 22 355 0.0 6.4 0.00 0.00 0.00 91 1014.1
20260906054039 22 360 1.6 6.4 0.00 0.00 0.00 91 1014.1
20260906053538 22 346 1.6 6.4 0.00 0.00 0.00 91 1014.1
20260906053039 22 5 1.6 8.0 0.00 0.00 0.00 91 1014.1
20260906052541 22 351 3.2 8.0 0.00 0.00 0.00 91 1014.0
20260906052037 22 13 1.6 4.8 0.00 0.00 0.00 91 1013.9
20260906051539 22 350 0.0 4.8 0.00 0.00 0.00 92 1013.9
20260906051038 22 355 0.0 0.0 0.00 0.00 0.00 92 1013.9
20260906050536 22 344 0.0 0.0 0.00 0.00 0.00 92 1013.8
20260906050035 22 344 0.0 0.0 0.00 0.00 0.00 92 1013.9
20260906045532 22 28 0.0 0.0 0.00 0.00 0.00 91 1013.7
20260906045036 22 28 0.0 0.0 0.00 0.00 0.00 91 1013.7
20260906044533 21 28 0.0 0.0 0.00 0.00 0.00 91 1013.5
20260906044036 21 28 0.0 0.0 0.00 0.00 0.00 91 1013.6
20260906043531 21 28 0.0 0.0 0.00 0.00 0.00 91 1013.5
20260906043034 21 28 0.0 0.0 0.00 0.00 0.00 91 1013.4
20260906042532 21 28 0.0 0.0 0.00 0.00 0.00 91 1013.4
20260906042031 21 28 0.0 0.0 0.00 0.00 0.00 90 1013.4
20260906041543 21 28 0.0 1.6 0.00 0.00 0.00 90 1013.3
20260906041030 21 28 0.0 4.8 0.00 0.00 0.00 89 1013.2
20260906040529 21 36 0.0 4.8 0.00 0.00 0.00 89 1013.2
20260906040033 22 5 1.6 4.8 0.00 0.00 0.00 89 1013.2
20260906035531 22 355 1.6 4.8 0.00 0.00 0.00 88 1013.2
20260906035028 22 9 0.0 3.2 0.00 0.00 0.00 88 1013.1
20260906034534 22 11 0.0 3.2 0.00 0.00 0.00 87 1013.2
20260906034026 22 5 0.0 3.2 0.00 0.00 0.00 87 1013.2
20260906033527 22 355 0.0 3.2 0.00 0.00 0.00 87 1013.2
20260906033027 22 348 0.0 4.8 0.00 0.00 0.00 86 1013.3
20260906032526 22 21 0.0 8.0 0.00 0.00 0.00 86 1013.3
20260906032026 22 21 0.0 9.7 0.00 0.00 0.00 86 1013.2
20260906031530 22 355 3.2 9.7 0.00 0.00 0.00 86 1013.2
20260906031026 22 23 3.2 9.7 0.00 0.00 0.00 86 1013.2
20260906030527 22 5 4.8 11.3 0.00 0.00 0.00 86 1013.2
20260906030033 22 22 4.8 12.9 0.00 0.00 0.00 85 1013.2
20260906025525 22 12 6.4 14.5 0.00 0.00 0.00 85 1013.2
20260906025026 22 36 6.4 14.5 0.00 0.00 0.00 85 1013.3
20260906024527 22 13 3.2 16.1 0.00 0.00 0.00 85 1013.4
20260906024025 22 31 3.2 19.3 0.00 0.00 0.00 85 1013.3
20260906023526 22 25 9.7 19.3 0.00 0.00 0.00 85 1013.4
20260906023026 23 360 9.7 16.1 0.00 0.00 0.00 85 1013.4
20260906022525 23 21 8.0 17.7 0.00 0.00 0.00 85 1013.4
20260906022024 23 15 9.7 17.7 0.00 0.00 0.00 84 1013.3
20260906021524 23 19 9.7 19.3 0.00 0.00 0.00 84 1013.3
20260906021026 23 27 11.3 19.3 0.00 0.00 0.00 84 1013.3
20260906020524 23 5 8.0 19.3 0.00 0.00 0.00 84 1013.4
20260906020024 23 28 8.0 16.1 0.00 0.00 0.00 84 1013.3
20260906015523 23 338 9.7 17.7 0.00 0.00 0.00 84 1013.2
20260906015022 23 22 6.4 17.7 0.00 0.00 0.00 84 1013.2
20260906014538 23 31 8.0 14.5 0.00 0.00 0.00 85 1013.1
20260906014021 23 36 8.0 14.5 0.00 0.00 0.00 85 1013.1
20260906013526 23 27 4.8 14.5 0.00 0.00 0.00 85 1013.1
20260906013024 23 32 6.4 12.9 0.00 0.00 0.00 86 1013.0
20260906012520 23 23 3.2 11.3 0.00 0.00 0.00 87 1013.0
20260906012019 23 5 4.8 9.7 0.00 0.00 0.00 87 1013.0
20260906011519 23 25 4.8 9.7 0.00 0.00 0.00 86 1012.9
20260906011018 23 28 3.2 9.7 0.00 0.00 0.00 86 1012.9
20260906010524 23 5 3.2 9.7 0.00 0.00 0.00 86 1012.9
20260906010039 23 24 4.8 9.7 0.00 0.00 0.00 86 1012.9
20260906005518 23 17 1.6 8.0 0.00 0.00 0.00 86 1012.9
20260906005021 23 5 0.0 8.0 0.00 0.00 0.00 86 1012.7
20260906004516 23 28 0.0 6.4 0.00 0.00 0.00 85 1012.6
20260906004015 23 34 0.0 9.7 0.00 0.00 0.00 84 1012.5
20260906003515 23 48 4.8 12.9 0.00 0.00 0.00 84 1012.4
20260906003015 24 32 3.2 12.9 0.00 0.00 0.00 84 1012.3
20260906002513 24 19 3.2 9.7 0.00 0.00 0.00 84 1012.2
20260906002013 24 24 1.6 6.4 0.00 0.00 0.00 84 1012.1
20260906001512 24 43 1.6 4.8 0.00 0.00 0.00 83 1012.1
20260906001015 25 47 0.0 6.4 0.00 0.00 0.00 82 1012.1
20260906000513 25 79 0.0 8.0 0.00 0.00 0.00 82 1012.0
20260906000013 25 57 1.6 8.0 0.00 0.00 0.00 81 1012.0
20260905235512 25 45 3.2 9.7 0.00 0.00 0.00 80 1012.1
20260905235015 25 26 4.8 11.3 0.00 0.00 0.00 80 1012.2
20260905234512 25 40 3.2 11.3 0.00 0.00 0.00 80 1012.2
20260905234013 26 24 4.8 11.3 0.00 0.00 0.00 79 1012.1
20260905233512 26 19 4.8 14.5 0.00 0.00 0.00 79 1012.1
20260905233013 26 5 8.0 14.5 0.00 0.00 0.00 77 1012.0
20260905232515 26 26 6.4 12.9 0.00 0.00 0.00 77 1012.0
20260905232010 26 5 8.0 12.9 0.00 0.00 0.00 77 1012.0
20260905231510 26 5 4.8 14.5 0.00 0.00 0.00 77 1012.0
20260905231011 26 20 4.8 17.7 0.00 0.00 0.00 77 1011.9
20260905230508 26 317 8.0 20.9 0.00 0.00 0.00 76 1011.7
20260905230008 27 355 9.7 20.9 0.00 0.00 0.00 75 1011.6
20260905225508 27 5 8.0 17.7 0.00 0.00 0.00 76 1011.7
20260905225008 27 12 9.7 22.5 0.00 0.00 0.00 75 1011.8
20260905224508 27 15 9.7 22.5 0.00 0.00 0.00 76 1011.7
20260905224012 27 355 11.3 20.9 0.00 0.00 0.00 74 1011.7
20260905223507 27 346 12.9 20.9 0.00 0.00 0.00 74 1011.5
20260905223017 27 360 11.3 20.9 0.00 0.00 0.00 74 1011.4
20260905222508 28 13 9.7 20.9 0.00 0.00 0.00 74 1011.4
20260905222007 28 18 12.9 20.9 0.00 0.00 0.00 73 1011.4
20260905221506 28 9 9.7 17.7 0.00 0.00 0.00 74 1011.4
20260905221007 28 355 11.3 20.9 0.00 0.00 0.00 72 1011.4
20260905220506 28 355 11.3 20.9 0.00 0.00 0.00 73 1011.4
20260905220006 28 360 6.4 14.5 0.00 0.00 0.00 73 1011.4
20260905215510 28 12 8.0 17.7 0.00 0.00 0.00 73 1011.4
20260905215008 28 355 9.7 19.3 0.00 0.00 0.00 72 1011.3
20260905214508 28 15 9.7 19.3 0.00 0.00 0.00 72 1011.2
20260905214006 28 343 11.3 20.9 0.00 0.00 0.00 72 1011.1
20260905213505 28 42 9.7 20.9 0.00 0.00 0.00 73 1011.1
20260905213007 29 13 11.3 20.9 0.00 0.00 0.00 72 1011.1
20260905212505 29 23 12.9 20.9 0.00 0.00 0.00 72 1011.1
20260905212006 29 46 8.0 19.3 0.00 0.00 0.00 72 1011.1
20260905211515 29 26 11.3 20.9 0.00 0.00 0.00 71 1011.0
20260905211004 30 20 11.3 20.9 0.00 0.00 0.00 71 1011.0
20260905210504 30 28 4.8 22.5 0.00 0.00 0.00 73 1011.0
20260905210004 30 25 9.7 22.5 0.00 0.00 0.00 71 1011.0
20260905205503 30 5 11.3 20.9 0.00 0.00 0.00 72 1011.1
20260905205003 30 22 8.0 19.3 0.00 0.00 0.00 71 1011.0
20260905204503 30 22 11.3 24.1 0.00 0.00 0.00 70 1011.1
20260905204005 30 350 12.9 24.1 0.00 0.00 0.00 70 1011.1
20260905203502 30 355 12.9 20.9 0.00 0.00 0.00 69 1011.0
20260905203003 30 49 11.3 20.9 0.00 0.00 0.00 70 1011.0
20260905202506 30 40 12.9 20.9 0.00 0.00 0.00 69 1011.1
20260905202001 31 47 11.3 20.9 0.00 0.00 0.00 69 1011.0
20260905201503 31 27 8.0 19.3 0.00 0.00 0.00 71 1011.1
20260905201002 31 5 11.3 19.3 0.00 0.00 0.00 69 1011.1
20260905200502 31 27 8.0 19.3 0.00 0.00 0.00 69 1011.0
20260905195601 31 5 11.3 17.7 0.00 0.00 0.00 68 1011.1
20260905195100 31 5 8.0 16.1 0.00 0.00 0.00 70 1011.0
20260905194600 31 19 6.4 17.7 0.00 0.00 0.00 70 1011.0
20260905194100 31 22 9.7 17.7 0.00 0.00 0.00 69 1011.0
20260905193559 31 323 6.4 16.1 0.00 0.00 0.00 72 1010.9
20260905193059 31 5 4.8 19.3 0.00 0.00 0.00 71 1010.9
20260905192600 31 15 9.7 19.3 0.00 0.00 0.00 68 1011.0
20260905192059 31 29 8.0 17.7 0.00 0.00 0.00 69 1011.0
20260905191558 31 15 8.0 17.7 0.00 0.00 0.00 69 1011.1
20260905191058 31 16 8.0 16.1 0.00 0.00 0.00 68 1011.1
20260905190558 31 355 8.0 16.1 0.00 0.00 0.00 69 1011.1
20260905185557 31 348 4.8 14.5 0.00 0.00 0.00 69 1011.2
20260905185059 31 360 6.4 14.5 0.00 0.00 0.00 70 1011.4
20260905184604 31 26 8.0 14.5 0.00 0.00 0.00 70 1011.3
20260905184058 31 338 6.4 12.9 0.00 0.00 0.00 72 1011.3
20260905183556 31 337 8.0 12.9 0.00 0.00 0.00 72 1011.5
20260905183110 31 355 4.8 12.9 0.00 0.00 0.00 73 1011.5
20260905182556 31 41 6.4 14.5 0.00 0.00 0.00 72 1011.3
20260905182055 31 19 6.4 14.5 0.00 0.00 0.00 72 1011.4
20260905181555 31 35 8.0 14.5 0.00 0.00 0.00 71 1011.3
20260905181054 31 30 6.4 14.5 0.00 0.00 0.00 73 1011.3
20260905180554 31 360 8.0 12.9 0.00 0.00 0.00 73 1011.3
20260905180056 31 33 6.4 12.9 0.00 0.00 0.00 72 1011.3
20260905175554 31 360 6.4 16.1 0.00 0.00 0.00 74 1011.4
20260905175054 31 23 6.4 16.1 0.00 0.00 0.00 74 1011.3
20260905174553 31 335 6.4 16.1 0.00 0.00 0.00 74 1011.3
20260905174057 31 34 8.0 16.1 0.00 0.00 0.00 75 1011.3
20260905173553 31 9 9.7 16.1 0.00 0.00 0.00 73 1011.3
20260905173052 32 42 6.4 14.5 0.00 0.00 0.00 72 1011.3
20260905172555 32 53 3.2 12.9 0.00 0.00 0.00 72 1011.4
20260905172052 32 23 6.4 12.9 0.00 0.00 0.00 73 1011.4
20260905171553 32 35 4.8 11.3 0.00 0.00 0.00 74 1011.4
20260905171050 31 340 6.4 12.9 0.00 0.00 0.00 74 1011.5
20260905170550 32 13 6.4 12.9 0.00 0.00 0.00 75 1011.5
20260905165554 31 355 6.4 12.9 0.00 0.00 0.00 74 1011.6
20260905165049 31 22 6.4 14.5 0.00 0.00 0.00 77 1011.7
20260905164552 31 53 8.0 16.1 0.00 0.00 0.00 74 1011.8
20260905164048 31 5 8.0 16.1 0.00 0.00 0.00 75 1011.8
20260905163549 31 330 8.0 16.1 0.00 0.00 0.00 75 1011.8
20260905163048 31 5 4.8 16.1 0.00 0.00 0.00 77 1011.7
20260905162548 31 355 6.4 14.5 0.00 0.00 0.00 77 1011.6
20260905162046 31 350 6.4 14.5 0.00 0.00 0.00 76 1011.7
20260905161546 31 348 6.4 12.9 0.00 0.00 0.00 76 1011.6
20260905161046 31 360 6.4 14.5 0.00 0.00 0.00 77 1011.6
20260905160545 31 334 8.0 14.5 0.00 0.00 0.00 76 1011.5
20260905160046 31 360 4.8 12.9 0.00 0.00 0.00 78 1011.4
20260905155545 31 15 4.8 12.9 0.00 0.00 0.00 78 1011.4
20260905155043 31 10 4.8 9.7 0.00 0.00 0.00 79 1011.5
20260905154544 31 319 4.8 11.3 0.00 0.00 0.00 78 1011.6
20260905154043 31 5 4.8 11.3 0.00 0.00 0.00 79 1011.6
20260905153541 31 333 3.2 11.3 0.00 0.00 0.00 79 1011.5
20260905153040 30 12 4.8 11.3 0.00 0.00 0.00 79 1011.4
20260905152541 30 296 4.8 11.3 0.00 0.00 0.00 81 1011.4
20260905152040 30 47 1.6 11.3 0.00 0.00 0.00 82 1011.4
20260905151538 30 30 6.4 11.3 0.00 0.00 0.00 80 1011.2
20260905151036 30 36 4.8 8.0 0.00 0.00 0.00 82 1011.3
20260905150537 30 30 4.8 9.7 0.00 0.00 0.00 81 1011.3
20260905150037 30 360 3.2 9.7 0.00 0.00 0.00 80 1011.3
20260905145537 30 355 4.8 9.7 0.00 0.00 0.00 80 1011.3
20260905145036 30 13 4.8 9.7 0.00 0.00 0.00 80 1011.3
20260905144537 30 5 6.4 11.3 0.00 0.00 0.00 79 1011.2
20260905144035 30 335 4.8 11.3 0.00 0.00 0.00 80 1011.1
20260905143540 30 360 3.2 9.7 0.00 0.00 0.00 81 1011.1
20260905143035 30 342 3.2 8.0 0.00 0.00 0.00 81 1011.1
20260905142535 30 355 3.2 9.7 0.00 0.00 0.00 80 1011.0
20260905142033 30 5 4.8 9.7 0.00 0.00 0.00 81 1011.0
20260905141532 30 15 3.2 8.0 0.00 0.00 0.00 81 1010.9
20260905141033 29 336 0.0 6.4 0.00 0.00 0.00 83 1011.0
20260905140530 29 288 1.6 6.4 0.00 0.00 0.00 83 1011.1
20260905140029 28 349 0.0 4.8 0.00 0.00 0.00 86 1011.1
20260905135529 28 288 0.0 4.8 0.00 0.00 0.00 86 1011.3
20260905135027 28 309 0.0 4.8 0.00 0.00 0.00 86 1011.4
20260905134530 28 289 0.0 6.4 0.00 0.00 0.00 87 1011.6
20260905134025 27 269 0.0 6.4 0.00 0.00 0.00 86 1011.5
20260905133523 27 242 1.6 6.4 0.00 0.00 0.00 87 1011.3
20260905133022 27 249 0.0 0.0 0.00 0.00 0.00 90 1011.2
20260905132520 27 249 0.0 0.0 0.00 0.00 0.00 90 1011.2
20260905132019 26 220 0.0 0.0 0.00 0.00 0.00 92 1011.0
20260905131518 26 220 0.0 1.6 0.00 0.00 0.00 93 1011.0
20260905131018 26 211 0.0 3.2 0.00 0.00 0.00 95 1011.0
20260905130515 25 68 0.0 3.2 0.00 0.00 0.00 96 1010.9
20260905130014 25 68 0.0 1.6 0.00 0.00 0.00 96 1010.8
20260905125512 25 68 0.0 3.2 0.00 0.00 0.00 96 1010.8
20260905125013 24 68 0.0 3.2 0.00 0.00 0.00 96 1010.8
20260905124516 23 24 0.0 1.6 0.00 0.00 0.00 96 1010.8
20260905124012 23 24 0.0 0.0 0.00 0.00 0.00 96 1010.7
20260905123512 23 24 0.0 0.0 0.00 0.00 0.00 96 1010.7
20260905123012 23 24 0.0 0.0 0.00 0.00 0.00 95 1010.7
20260905122512 23 24 0.0 0.0 0.00 0.00 0.00 95 1010.8
20260905122012 23 24 0.0 0.0 0.00 0.00 0.00 96 1010.7
20260905121512 23 24 0.0 0.0 0.00 0.00 0.00 95 1010.7
20260905121012 22 24 0.0 0.0 0.00 0.00 0.00 96 1010.7
20260905120512 22 24 0.0 0.0 0.00 0.00 0.00 95 1010.6
20260905120010 22 24 0.0 0.0 0.00 0.00 0.00 95 1010.6
20260905115511 22 24 0.0 0.0 0.00 0.00 0.00 95 1010.5
20260905115011 22 24 0.0 0.0 0.00 0.00 0.00 95 1010.5
20260905114510 22 24 0.0 0.0 0.00 0.00 0.00 95 1010.4
20260905114010 22 24 0.0 0.0 0.00 0.00 0.00 95 1010.4
20260905113510 22 24 0.0 0.0 0.00 0.00 0.00 95 1010.5